Regional Weather Roundup
Issued by NWS

Home | Current Version | Previous Version | Text Only | Print | Product List | Glossary On
Versions: 1 2 3 4 5 6 7 8 9 10 11 12 13 14 15 16 17 18 19 20 21 22 23 24 25 26 27 28 29 30 31 32 33 34 35 36 37 38 39 40 41 42 43 44 45 46 47 48 49 50
000
ASUS43 KMPX 170310
RWRMN
WEATHER ROUNDUP FOR MINNESOTA
NATIONAL WEATHER SERVICE TWIN CITIES/CHANHASSEN MN
900 PM CST MON JAN 16 2017


NOTE: "FAIR" INDICATES FEW OR NO CLOUDS BELOW 12,000 FEET WITH NO
SIGNIFICANT WEATHER AND/OR OBSTRUCTIONS TO VISIBILITY. N/A MEANS
CURRENT SKY AND/OR WEATHER CONDITIONS ARE NOT AVAILABLE.

MNZ060>063-068>070-170400-
   Twin Cities Metro

CITY           SKY/WX    TMP DP  RH WIND       PRES   REMARKS
TWIN CITIES    FRZ RAIN  31  26  82 N8        29.98F WCI  23
ST PAUL        FRZ RAIN  30  28  92 N5        30.00F FOG     WCI  25
CRYSTAL        CLOUDY    30  19  63 N5        29.98F WCI  25
BLAINE         CLOUDY    30  23  74 N6        29.99F WCI  24
LAKEVILLE      MIX PCPN  28  28 100 NE5       29.97F WCI  23
EDEN PRAIRIE   FRZ RAIN  31  27  85 N6        29.97F FOG     WCI  25
SOUTH ST PAUL  MIX PCPN  31  29  93 CALM      29.98F
LAKE ELMO      MIX PCPN  32  30  93 NE5       29.99F WCI  27
$$
MNZ001>005-007-008-013>017-022>024-027-028-170400-
   Northwest Minnesota

CITY           SKY/WX    TMP DP  RH WIND       PRES   REMARKS
BEMIDJI        CLEAR     14  12  93 CALM      29.99F
HALLOCK        CLOUDY     7   3  85 SE6       30.03S WCI  -3
ROSEAU         CLOUDY     9   3  78 CALM      30.03S
WARROAD        CLOUDY     7   1  78 CALM      30.02F
THIEF RVR FALL CLOUDY     7   5  91 SE3       30.03S
CROOKSTON      CLOUDY     5   3  92 S3        30.05S
FOSSTON        CLOUDY     9   5  85 S6        30.01F WCI  -1
DETROIT LAKES  CLEAR     12  10  92 CALM      30.02S
MOORHEAD       CLEAR      3   0  85 CALM      30.04F
PARK RAPIDS    HAZE       7   1  76 CALM      29.99S VSB 1/2
MAHNOMEN       FAIR      10   8  90 SE8       30.01S WCI  -2
$$
MNZ006-009>011-018-025>026-170400-
   North Central Minnesota

CITY           SKY/WX    TMP DP  RH WIND       PRES   REMARKS
BAUDETTE       CLOUDY     8   5  87 NW3       30.00S
FLAG ISLAND    CLOUDY     7   3  85 CALM      30.02S
INTL FALLS     CLOUDY     7   3  84 CALM      30.00F
WASKISH        CLOUDY     7   3  85 CALM      30.00F
BIG FORK       CLOUDY    14  12  92 CALM      30.00F
LONGVILLE      CLOUDY    16  14  93 CALM      30.00S FOG
GRAND RAPIDS   CLOUDY    19  15  84 S5        30.02S WCI  12
CRANE LAKE     CLOUDY     7   7 100 CALM      30.04F
ORR            CLOUDY    12  10  92 CALM      29.98F
COOK           CLOUDY    12  10  92 CALM      30.01F
WALKER         FAIR      16  14  91 S3        29.99F
$$
MNZ012-019>021-037-170400-
   Northeast Minnesota

CITY           SKY/WX    TMP DP  RH WIND       PRES   REMARKS
DULUTH         CLOUDY    21  15  78 CALM      29.99F
ELY            CLOUDY    12  12 100 SE5       30.00F WCI   4
HIBBING        CLOUDY     8   7  95 CALM      30.00F FOG
EVELETH        CLOUDY    13  11  90 CALM      30.02R FOG
DULUTH HARBOR  CLOUDY    25  19  80 CALM      30.04F
TWO HARBORS    CLOUDY    25  18  74 CALM      30.00F
SILVER BAY     CLOUDY    19  18  93 CALM      30.01F
GRAND MARAIS     N/A     23  20  88 N3        30.06S
G MARAIS ARPRT CLOUDY    19  16  86 N5        30.01S FOG     WCI  13
$$
MNZ029>031-032-039>041-046>048-054>057-064-170400-
   West Central Minnesota

CITY           SKY/WX    TMP DP  RH WIND       PRES   REMARKS
FERGUS FALLS   CLOUDY    12  10  92 CALM      30.07F FOG
WHEATON        CLOUDY    16  14  93 W3        30.06S
MORRIS         CLOUDY    12  10  92 NW7       30.01F FOG     WCI   2
ALEXANDRIA     CLOUDY    14  11  87 CALM      30.01S FOG
ELBOW LAKE     FAIR      11  10  95 N3        30.03S FOG
WADENA         CLOUDY     9   9 100 CALM      30.00S FOG
GLENWOOD       CLOUDY    25  25 100 CALM      30.01S FOG
APPLETON       CLOUDY    23  21  93 NW3       30.02F FOG
ORTONVILLE     CLOUDY    10   7  85 CALM      30.03F
MADISON        CLOUDY    21  18  86 NW5       30.03F WCI  15
WILLMAR        CLOUDY    30  30 100 CALM      30.01S FOG
$$
MNZ033>034-036-042>043-049>051-058-059-170400-
   Central Minnesota

CITY           SKY/WX    TMP DP  RH WIND       PRES   REMARKS
ST CLOUD       CLOUDY    22  20  92 NW5       30.00F WCI  16
SAUK CENTRE    CLOUDY    27  27  99 CALM      30.01S FOG
PAYNESVILLE    CLOUDY    29  29 100 NE3       30.01S FOG
AITKIN         CLOUDY    16   9  73 CALM      30.00S
PINE RIVER     CLOUDY    12  10  92 CALM      30.04S FOG
BRAINERD       CLOUDY    13  10  88 CALM      30.01F FOG
STAPLES        CLOUDY    10  10 100 CALM      30.01S FOG
LONG PRAIRIE   CLOUDY    27  21  80 CALM      30.00F FOG
LITTLE FALLS   CLOUDY    28  23  80 CALM      30.01F
LITCHFIELD     CLOUDY    30  28  93 N6        30.00S WCI  24
BUFFALO        CLOUDY    28  21  74 N3        30.00F
MAPLE LAKE     CLOUDY    28  23  81 N6        30.00F WCI  22
HUTCHINSON     CLOUDY    31  26  81 N3        29.99F
$$
MNZ037-044-045-052-053-170400-
   East Central Minnesota

CITY           SKY/WX    TMP DP  RH WIND       PRES   REMARKS
PRINCETON      CLOUDY    25  19  80 CALM      30.00F
MORA           CLOUDY    19  16  86 CALM      30.02F
CAMBRIDGE      CLOUDY    28  18  64 N3        29.99F
RUSH CITY      CLOUDY    27  19  74 NE3       30.01F
MOOSE LAKE     CLOUDY    23  18  80 CALM      29.99F
HINCKLEY       FAIR      23  19  86 CALM      30.01F
CLOQUET        CLOUDY    19  16  86 CALM      30.00F
MCGREGOR       CLOUDY    18  16  93 CALM      30.01F
$$
MNZ071>073-080-081-089-090-097-098-170400-
   Southwest Minnesota

CITY           SKY/WX    TMP DP  RH WIND       PRES   REMARKS
MONTEVIDEO     FOG       25  25 100 N5        30.03F VSB 1   WCI  19
GRANITE FALLS  CLOUDY    28  27  96 NW7       30.02S FOG     WCI  21
CANBY            N/A     23  20  87 CALM      30.03S
MARSHALL       MIX PCPN  24  23  96 NW9       30.01S VSB 1   WCI  14
REDWOOD FALLS  CLOUDY    31  28  89 N8        29.99S WCI  23
OLIVIA         CLOUDY    32  28  86 N7        29.99S WCI  26
PIPESTONE      FOG       28  27  93 N8        29.96S VSB 3/4 WCI  20
WINDOM         MIX PCPN  30  30 100 N8        29.95F WCI  23
WORTHINGTON    MIX PCPN  30  29  96 N12       29.95S FOG     WCI  20
JACKSON        DRIZZLE   30  30 100 N7        29.95S WCI  23
TRACY          FOG       27  26  99 NW10      29.99S VSB 3/4 WCI  17
SLAYTON        FOG       27  27 100 N10       29.97F VSB 1/2 WCI  17
$$
MNZ065>067-074>077-082>085-091>093-170400-
   South Central Minnesota

CITY           SKY/WX    TMP DP  RH WIND       PRES   REMARKS
MANKATO        MIX PCPN  31  30  96 N7        29.96F FOG     WCI  24
NEW ULM        MIX PCPN  30  30 100 NE5       29.97F WCI  25
ST JAMES       MIX PCPN  30  30 100 N5        29.97F WCI  25
FAIRMONT       MIX PCPN  30  30 100 N9        29.94F FOG     WCI  22
GLENCOE        MIX PCPN  32  31  95 N6        29.97F WCI  26
FARIBAULT      LGT RAIN  30  30 100 CALM      29.96S
OWATONNA       RAIN      32  30  93 CALM      29.94F
WASECA         MIX PCPN  32  32 100 NE3       29.95F
ALBERT LEA     MIX PCPN  34  32  93 NE3       29.92F
$$
MNZ078>079-086>088-094>096-170400-
   Southeast Minnesota

CITY           SKY/WX    TMP DP  RH WIND       PRES   REMARKS
ROCHESTER      FRZ RAIN  31  31 100 NE9       29.93F FOG     WCI  23
RED WING       MIX PCPN  32  30  93 E3        29.97F
STANTON        RAIN      32  30  93 N5        29.95F WCI  27
DODGE CENTER   MIX PCPN  30  30 100 CALM      29.92F
WINONA         MIX PCPN  34  34 100 CALM      29.97F
AUSTIN         MIX PCPN  32  30  93 NE6       29.91F WCI  26
PRESTON        CLOUDY    31  30  96 NE3       29.92F FOG
$$
ABBREVIATIONS USED IN REMARKS
   TC - TEMPERATURES IN CELSIUS
  WCI - WIND CHILL INDEX
   HX - HEAT INDEX
  VSB - VISIBILITY
$$



USA.gov is the U.S. government's official web portal to all federal, state and local government web resources and services.